{"data":{"norad_id":65721,"epoch":"2026-05-25T03:14:19.851072Z","epoch_age_seconds":63182,"freshness":"FRESH","line1":"1 65721U 25214K   26145.13495198  .00001303  00000+0  18488-3 0  9991","line2":"2 65721  49.9859  55.1482 0008353 119.5875 240.5897 14.83280300 36088","mean_motion":14.832803,"eccentricity":0.0008353,"inclination_deg":49.9859,"raan_deg":55.1482,"arg_perigee_deg":119.5875,"mean_anomaly_deg":240.5897,"bstar":0.00018488,"rev_number":3608,"period_min":97.08212264398,"perigee_km":613.14420950731,"apogee_km":624.83360805051,"semimajor_km":6997.1259087789,"source":"CELESTRAK","updated_at":"2026-05-25T13:38:05.628938Z"}}